Home > Time Zones > World Clock > Weather > Japan > Kyoto > Past weeks

Flag for Japan Weather past 2 weeks in Kyoto, Japan

Now
73 °F

Partly cloudy.


Feels Like: 74 °F
Forecast: 56 / 65 °F
Wind: 3 mph from Southwest

Location: Osaka International Airport

Current Time: Oct 21, 2014 at 9:34:42 PM

Latest Report: Oct 21, 2014 at 8:00 PM


Visibility: N/A

Pressure: 29.92 "Hg

Humidity: 78%

Dew point: 66 °F

Location of KyotoLocation

Historic Weather in Kyoto — Graph

°F

Kyoto temperature yesterday

Maximum temperature yesterday: 70 °F (at 10:00 AM)
Minimum temperature yesterday: 64 °F (at 6:00 PM)
Average temperature yesterday: 67 °F

Past Weeks' High & Low Weather Summary

 TemperatureHumidityPressure
High81 °F (Oct 10, 3:00 PM)100% (Oct 20, 7:00 PM)30.30 "Hg (Oct 20, 7:00 PM)
Low48 °F (Oct 18, 5:00 AM)24% (Oct 19, 3:00 PM)29.12 "Hg (Oct 13, 6:47 PM)
Average68 °F63%30.03 "Hg
* Reported Oct 6 8:00 PM — Oct 21 8:00 PM, Kyoto, Weather by CustomWeather, © 2014

Note: Actual official high and low records may vary slightly from our data, if they occured in-between our weather recording intervals... More about our weather records

Advertising

Kyoto weather history for previous 24 hours

 ConditionsComfort  
Time TempWeatherWind HumidityBarometerVisibility
8:00 PM
Oct 21
73 °FPartly cloudy.3 mph78%29.92 "HgN/A
7:00 PM73 °FPartly cloudy.3 mph74%29.92 "HgN/A
6:00 PM73 °FPartly cloudy.3 mph69%29.92 "HgN/A
5:00 PM75 °FPartly sunny.6 mph65%29.92 "HgN/A
4:00 PM75 °FScattered clouds.6 mph61%29.92 "HgN/A
3:00 PM79 °FPassing clouds.8 mph54%29.92 "HgN/A
2:00 PM79 °FScattered clouds.6 mph54%29.95 "HgN/A
1:00 PM77 °FScattered clouds.2 mph57%29.98 "HgN/A
12:00 PM75 °FPartly sunny.2 mph65%30.01 "HgN/A
11:00 AM73 °FBroken clouds.2 mph69%30.04 "HgN/A
10:00 AM70 °FBroken clouds.2 mph78%30.07 "HgN/A
9:00 AM70 °FBroken clouds.3 mph78%30.07 "HgN/A
8:00 AM66 °FPartly sunny.3 mph88%30.07 "HgN/A
7:00 AM64 °FScattered clouds.2 mph94%30.07 "HgN/A
6:00 AM64 °FPartly cloudy.1 mph94%30.07 "HgN/A
5:00 AM64 °FPartly cloudy.2 mph94%30.07 "HgN/A
Weather by CustomWeather, © 2014

See weather overviewHow to use our weather pages